Flag for British Virgin Islands Weather past 2 weeks in Road Town, Tortola, British Virgin Islands

Now
81 °F

Passing clouds.


Feels Like: 86 °F
Forecast: 81 / 84 °F
Wind: 8 mph from East

Location: Christiansted / Henry E. Rohlsen Airport - Saint Croix

Current Time: Sep 2, 2014 at 5:38:02 AM

Latest Report: Sep 2, 2014 at 5:00 AM


Visibility: 10 mi

Pressure: 29.96 "Hg

Humidity: 84%

Dew point: 75 °F

Location of Road TownLocation

Historic Weather in Road Town — Graph

°F

Road Town temperature yesterday

Maximum temperature yesterday: 88 °F (at 11:53 AM)
Minimum temperature yesterday: 77 °F (at 1:53 AM)
Average temperature yesterday: 83 °F

Past Weeks' High & Low Weather Summary

 TemperatureHumidityPressure
High90 °F (Aug 19, 12:53 PM)100% (Aug 22, 10:16 AM)30.08 "Hg (Aug 22, 10:16 AM)
Low73 °F (Aug 29, 1:53 AM)57% (Aug 20, 2:53 PM)29.82 "Hg (Aug 22, 4:53 AM)
Average82 °F80%29.97 "Hg
* Reported Aug 18 3:53 AM — Sep 2 3:53 AM, Road Town, Weather by CustomWeather, © 2014

Note: Actual official high and low records may vary slightly from our data, if they occured in-between our weather recording intervals... More about our weather records

Advertising

Road Town weather history for previous 24 hours

 ConditionsComfort  
Time TempWeatherWind HumidityBarometerVisibility
3:53 AM
Sep 2
79 °FPassing clouds.7 mph90%29.96 "Hg10 mi
2:53 AM78 °FClear.6 mph93%29.97 "Hg10 mi
2:26 AM79 °FLight rain. Partly cloudy.8 mph94%29.99 "Hg10 mi
11:53 PM
Sep 1
80 °FClear.6 mph85%30.01 "Hg10 mi
9:53 PM81 °FMostly cloudy.5 mph82%30.02 "Hg10 mi
8:53 PM81 °FClear.6 mph82%30.01 "Hg10 mi
7:53 PM81 °FClear.7 mph79%29.98 "Hg10 mi
6:53 PM82 °FClear.14 mph77%29.97 "Hg10 mi
5:53 PM84 °FScattered clouds.16 mph70%29.98 "Hg10 mi
4:53 PM86 °FScattered clouds.13 mph67%29.96 "Hg10 mi
2:53 PM88 °FScattered clouds.14 mph65%29.98 "Hg10 mi
1:53 PM87 °FPassing clouds.16 mph67%29.99 "Hg10 mi
12:53 PM88 °FPassing clouds.15 mph67%30.02 "Hg10 mi
11:53 AM88 °FPassing clouds.14 mph65%30.04 "Hg10 mi
10:53 AM87 °FPassing clouds.16 mph65%30.05 "Hg10 mi
9:53 AM86 °FScattered clouds.14 mph70%30.05 "Hg10 mi
8:53 AM85 °FSunny.12 mph72%30.04 "Hg10 mi
7:53 AM83 °FBroken clouds.14 mph77%30.03 "Hg10 mi
6:53 AM78 °FBroken clouds.5 mph87%30.02 "Hg10 mi
Weather by CustomWeather, © 2014

See weather overviewHow to use our weather pages